Time,TemperatureF,DewpointF,PressureIn,WindDirection,WindDirectionDegrees,WindSpeedMPH,WindSpeedGustMPH,Humidity,HourlyPrecipIn,Conditions,Clouds,dailyrainin,SolarRadiationWatts/m^2,SoftwareType,DateUTC
2013-05-30 00:21:00,43.0,42.0,-100.00,NNW,344,2.0,4.0,97,0.00,,,0.00,0.000000,,2013-05-30 08:21:00,
2013-05-30 00:32:00,43.0,42.0,-100.00,NNW,344,2.0,4.0,97,0.00,,,0.00,0.000000,,2013-05-30 08:32:00,
2013-05-30 00:42:00,43.0,42.0,-100.00,NNW,344,2.0,4.0,97,0.00,,,0.00,0.000000,,2013-05-30 08:42:00,
2013-05-30 00:52:00,43.0,42.0,-100.00,NNW,344,2.0,4.0,97,0.00,,,0.00,0.000000,,2013-05-30 08:52:00,
2013-05-30 01:21:00,42.0,42.0,-100.00,NNW,334,2.0,4.0,100,0.00,,,0.00,0.000000,,2013-05-30 09:21:00,
2013-05-30 01:32:00,42.0,42.0,-100.00,NNW,334,2.0,4.0,100,0.00,,,0.00,0.000000,,2013-05-30 09:32:00,
2013-05-30 01:42:00,42.0,42.0,-100.00,NNW,334,2.0,4.0,100,0.00,,,0.00,0.000000,,2013-05-30 09:42:00,
2013-05-30 01:53:00,42.0,42.0,-100.00,NNW,334,2.0,4.0,100,0.00,,,0.00,0.000000,,2013-05-30 09:53:00,
2013-05-30 02:22:00,40.0,40.0,-100.00,NW,304,2.0,2.0,99,0.00,,,0.00,0.000000,,2013-05-30 10:22:00,
2013-05-30 02:32:00,40.0,40.0,-100.00,NW,304,2.0,2.0,99,0.00,,,0.00,0.000000,,2013-05-30 10:32:00,
2013-05-30 02:42:00,40.0,40.0,-100.00,NW,304,2.0,2.0,99,0.00,,,0.00,0.000000,,2013-05-30 10:42:00,
2013-05-30 02:52:00,40.0,40.0,-100.00,NW,304,2.0,2.0,99,0.00,,,0.00,0.000000,,2013-05-30 10:52:00,
2013-05-30 03:21:00,39.0,39.0,-100.00,ESE,110,0.0,3.0,100,0.00,,,0.00,0.000000,,2013-05-30 11:21:00,
2013-05-30 03:32:00,39.0,39.0,-100.00,ESE,110,0.0,3.0,100,0.00,,,0.00,0.000000,,2013-05-30 11:32:00,
2013-05-30 03:42:00,39.0,39.0,-100.00,ESE,110,0.0,3.0,100,0.00,,,0.00,0.000000,,2013-05-30 11:42:00,
2013-05-30 03:52:00,39.0,39.0,-100.00,ESE,110,0.0,3.0,100,0.00,,,0.00,0.000000,,2013-05-30 11:52:00,
2013-05-30 04:22:00,37.0,37.0,-100.00,NW,325,1.0,4.0,100,0.00,,,0.00,0.000000,,2013-05-30 12:22:00,
2013-05-30 04:32:00,37.0,37.0,-100.00,NW,325,1.0,4.0,100,0.00,,,0.00,0.000000,,2013-05-30 12:32:00,
2013-05-30 04:42:00,37.0,37.0,-100.00,NW,325,1.0,4.0,100,0.00,,,0.00,0.000000,,2013-05-30 12:42:00,
2013-05-30 04:52:00,37.0,37.0,-100.00,NW,325,1.0,4.0,100,0.00,,,0.00,0.000000,,2013-05-30 12:52:00,
2013-05-30 05:22:00,40.0,40.0,-100.00,WNW,285,1.0,3.0,100,0.00,,,0.00,10.000000,,2013-05-30 13:22:00,
2013-05-30 05:32:00,40.0,40.0,-100.00,WNW,285,1.0,3.0,100,0.00,,,0.00,10.000000,,2013-05-30 13:32:00,
2013-05-30 05:42:00,40.0,40.0,-100.00,WNW,285,1.0,3.0,100,0.00,,,0.00,10.000000,,2013-05-30 13:42:00,
2013-05-30 05:52:00,40.0,40.0,-100.00,WNW,285,1.0,3.0,100,0.00,,,0.00,10.000000,,2013-05-30 13:52:00,
2013-05-30 06:22:00,46.0,46.0,-100.00,East,98,1.0,3.0,100,0.00,,,0.00,31.000000,,2013-05-30 14:22:00,
2013-05-30 06:32:00,46.0,46.0,-100.00,East,98,1.0,3.0,100,0.00,,,0.00,31.000000,,2013-05-30 14:32:00,
2013-05-30 06:42:00,46.0,46.0,-100.00,East,98,1.0,3.0,100,0.00,,,0.00,31.000000,,2013-05-30 14:42:00,
2013-05-30 06:51:00,46.0,46.0,-100.00,East,98,1.0,3.0,100,0.00,,,0.00,31.000000,,2013-05-30 14:51:00,
2013-05-30 08:12:00,49.0,49.0,-100.00,NNW,338,4.0,9.0,100,-99.99,,,0.00,163.000000,,2013-05-30 16:12:00,
2013-05-30 08:22:00,49.0,49.0,-100.00,NNW,338,4.0,9.0,100,-99.99,,,0.00,163.000000,,2013-05-30 16:22:00,
2013-05-30 08:33:00,49.0,49.0,-100.00,NNW,338,4.0,9.0,100,-99.99,,,0.00,163.000000,,2013-05-30 16:33:00,
2013-05-30 08:42:00,49.0,49.0,-100.00,NNW,338,4.0,9.0,100,-99.99,,,0.00,163.000000,,2013-05-30 16:42:00,
2013-05-30 08:52:00,49.0,49.0,-100.00,NNW,338,4.0,9.0,100,-99.99,,,0.00,163.000000,,2013-05-30 16:52:00,
2013-05-30 09:22:00,52.0,51.0,-100.00,North,356,4.0,11.0,98,0.00,,,0.00,216.000000,,2013-05-30 17:22:00,
2013-05-30 09:32:00,52.0,51.0,-100.00,North,356,4.0,11.0,98,0.00,,,0.00,216.000000,,2013-05-30 17:32:00,
2013-05-30 09:42:00,52.0,51.0,-100.00,North,356,4.0,11.0,98,0.00,,,0.00,216.000000,,2013-05-30 17:42:00,
2013-05-30 09:52:00,52.0,51.0,-100.00,North,356,4.0,11.0,98,0.00,,,0.00,216.000000,,2013-05-30 17:52:00,
2013-05-30 10:11:00,56.0,50.0,-100.00,North,11,8.0,11.0,79,0.00,,,0.00,731.000000,,2013-05-30 18:11:00,
2013-05-30 10:21:00,56.0,50.0,-100.00,North,11,8.0,11.0,79,0.00,,,0.00,731.000000,,2013-05-30 18:21:00,
2013-05-30 10:42:00,56.0,50.0,-100.00,North,11,8.0,11.0,79,0.00,,,0.00,731.000000,,2013-05-30 18:42:00,
2013-05-30 10:51:00,56.0,50.0,-100.00,North,11,8.0,11.0,79,0.00,,,0.00,731.000000,,2013-05-30 18:51:00,
2013-05-30 11:11:00,58.0,49.0,-100.00,North,7,8.0,14.0,73,-99.99,,,0.00,987.000000,,2013-05-30 19:11:00,
2013-05-30 11:22:00,58.0,49.0,-100.00,North,7,8.0,14.0,73,-99.99,,,0.00,987.000000,,2013-05-30 19:22:00,
2013-05-30 12:22:00,60.0,50.0,-100.00,North,8,9.0,16.0,69,-99.99,,,0.00,1049.000000,,2013-05-30 20:22:00,
2013-05-30 13:11:00,60.0,49.0,-100.00,North,357,8.0,14.0,66,-99.99,,,0.00,767.000000,,2013-05-30 21:11:00,
2013-05-30 13:22:00,60.0,49.0,-100.00,North,357,8.0,14.0,66,-99.99,,,0.00,767.000000,,2013-05-30 21:22:00,
2013-05-30 13:42:00,60.0,49.0,-100.00,North,357,8.0,14.0,66,-99.99,,,0.00,767.000000,,2013-05-30 21:42:00,
2013-05-30 13:53:00,60.0,49.0,-100.00,North,357,8.0,14.0,66,-99.99,,,0.00,767.000000,,2013-05-30 21:53:00,
2013-05-30 14:12:00,59.0,48.0,-100.00,NNE,15,8.0,14.0,66,0.00,,,0.00,756.000000,,2013-05-30 22:12:00,
2013-05-30 14:22:00,59.0,48.0,-100.00,NNE,15,8.0,14.0,66,0.00,,,0.00,756.000000,,2013-05-30 22:22:00,
2013-05-30 14:33:00,59.0,48.0,-100.00,NNE,15,8.0,14.0,66,0.00,,,0.00,756.000000,,2013-05-30 22:33:00,
2013-05-30 14:42:00,59.0,48.0,-100.00,NNE,15,8.0,14.0,66,0.00,,,0.00,756.000000,,2013-05-30 22:42:00,
2013-05-30 14:52:00,59.0,48.0,-100.00,NNE,15,8.0,14.0,66,0.00,,,0.00,756.000000,,2013-05-30 22:52:00,
2013-05-30 15:22:00,60.0,48.0,-100.00,North,354,8.0,14.0,65,0.00,,,0.00,474.000000,,2013-05-30 23:22:00,
2013-05-30 15:31:00,60.0,48.0,-100.00,North,354,8.0,14.0,65,0.00,,,0.00,474.000000,,2013-05-30 23:31:00,
2013-05-30 15:41:00,60.0,48.0,-100.00,North,354,8.0,14.0,65,0.00,,,0.00,474.000000,,2013-05-30 23:41:00,
2013-05-30 15:52:00,60.0,48.0,-100.00,North,354,8.0,14.0,65,0.00,,,0.00,474.000000,,2013-05-30 23:52:00,
2013-05-30 16:21:00,59.0,48.0,-100.00,NNW,344,7.0,13.0,66,0.00,,,-99.99,254.000000,,2013-05-31 00:21:00,
2013-05-30 16:32:00,59.0,48.0,-100.00,NNW,344,7.0,13.0,66,0.00,,,-99.99,254.000000,,2013-05-31 00:32:00,
2013-05-30 16:42:00,59.0,48.0,-100.00,NNW,344,7.0,13.0,66,0.00,,,-99.99,254.000000,,2013-05-31 00:42:00,
2013-05-30 16:51:00,59.0,48.0,-100.00,NNW,344,7.0,13.0,66,0.00,,,-99.99,254.000000,,2013-05-31 00:51:00,
2013-05-30 17:21:00,59.0,48.0,-100.00,NNW,338,6.0,11.0,66,0.00,,,0.00,209.000000,,2013-05-31 01:21:00,
2013-05-30 17:32:00,59.0,48.0,-100.00,NNW,338,6.0,11.0,66,0.00,,,0.00,209.000000,,2013-05-31 01:32:00,
2013-05-30 17:42:00,59.0,48.0,-100.00,NNW,338,6.0,11.0,66,0.00,,,0.00,209.000000,,2013-05-31 01:42:00,
2013-05-30 17:51:00,59.0,48.0,-100.00,NNW,338,6.0,11.0,66,0.00,,,0.00,209.000000,,2013-05-31 01:51:00,
2013-05-30 18:11:00,58.0,48.0,-100.00,North,6,4.0,8.0,69,0.00,,,0.00,86.000000,,2013-05-31 02:11:00,
2013-05-30 18:21:00,58.0,48.0,-100.00,North,6,4.0,8.0,69,0.00,,,0.00,86.000000,,2013-05-31 02:21:00,
2013-05-30 18:32:00,58.0,48.0,-100.00,North,6,4.0,8.0,69,0.00,,,0.00,86.000000,,2013-05-31 02:32:00,
2013-05-30 18:41:00,58.0,48.0,-100.00,North,6,4.0,8.0,69,0.00,,,0.00,86.000000,,2013-05-31 02:41:00,
2013-05-30 18:51:00,58.0,48.0,-100.00,North,6,4.0,8.0,69,0.00,,,0.00,86.000000,,2013-05-31 02:51:00,
2013-05-30 19:21:00,58.0,48.0,-100.00,NNE,17,1.0,6.0,69,0.00,,,-99.99,51.000000,,2013-05-31 03:21:00,
2013-05-30 19:33:00,58.0,48.0,-100.00,NNE,17,1.0,6.0,69,0.00,,,-99.99,51.000000,,2013-05-31 03:33:00,
2013-05-30 19:43:00,58.0,48.0,-100.00,NNE,17,1.0,6.0,69,0.00,,,-99.99,51.000000,,2013-05-31 03:43:00,
2013-05-30 19:53:00,58.0,48.0,-100.00,NNE,17,1.0,6.0,69,0.00,,,-99.99,51.000000,,2013-05-31 03:53:00,
2013-05-30 20:12:00,55.0,49.0,-100.00,ENE,64,0.0,3.0,80,0.00,,,0.00,25.000000,,2013-05-31 04:12:00,
2013-05-30 20:22:00,55.0,49.0,-100.00,ENE,64,0.0,3.0,80,0.00,,,0.00,25.000000,,2013-05-31 04:22:00,
2013-05-30 20:32:00,55.0,49.0,-100.00,ENE,64,0.0,3.0,80,0.00,,,0.00,25.000000,,2013-05-31 04:32:00,
2013-05-30 20:42:00,55.0,49.0,-100.00,ENE,64,0.0,3.0,80,0.00,,,0.00,25.000000,,2013-05-31 04:42:00,
2013-05-30 20:52:00,55.0,49.0,-100.00,ENE,64,0.0,3.0,80,0.00,,,0.00,25.000000,,2013-05-31 04:52:00,
2013-05-30 21:22:00,54.0,53.0,-100.00,SSW,204,1.0,2.0,96,0.03,,,0.03,16.000000,,2013-05-31 05:22:00,
2013-05-30 21:31:00,54.0,53.0,-100.00,SSW,204,1.0,2.0,96,0.03,,,0.03,16.000000,,2013-05-31 05:31:00,
2013-05-30 21:42:00,54.0,53.0,-100.00,SSW,204,1.0,2.0,96,0.03,,,0.03,16.000000,,2013-05-31 05:42:00,
2013-05-30 21:51:00,54.0,53.0,-100.00,SSW,204,1.0,2.0,96,0.03,,,0.03,16.000000,,2013-05-31 05:51:00,
2013-05-30 22:12:00,52.0,51.0,-100.00,South,183,3.0,5.0,97,0.01,,,0.04,2.000000,,2013-05-31 06:12:00,
2013-05-30 22:21:00,52.0,51.0,-100.00,South,183,3.0,5.0,97,0.01,,,0.04,2.000000,,2013-05-31 06:21:00,
2013-05-30 22:31:00,52.0,51.0,-100.00,South,183,3.0,5.0,97,0.01,,,0.04,2.000000,,2013-05-31 06:31:00,
2013-05-30 22:41:00,52.0,51.0,-100.00,South,183,3.0,5.0,97,0.01,,,0.04,2.000000,,2013-05-31 06:41:00,
2013-05-30 22:51:00,52.0,51.0,-100.00,South,183,3.0,5.0,97,0.01,,,0.04,2.000000,,2013-05-31 06:51:00,
2013-05-30 23:21:00,50.0,50.0,-100.00,South,185,3.0,5.0,100,0.06,,,0.10,0.000000,,2013-05-31 07:21:00,
2013-05-30 23:32:00,50.0,50.0,-100.00,South,185,3.0,5.0,100,0.06,,,0.10,0.000000,,2013-05-31 07:32:00,
2013-05-30 23:41:00,50.0,50.0,-100.00,South,185,3.0,5.0,100,0.06,,,0.10,0.000000,,2013-05-31 07:41:00,
2013-05-30 23:52:00,50.0,50.0,-100.00,South,185,3.0,5.0,100,0.06,,,0.10,0.000000,,2013-05-31 07:52:00,